Simultaneous Nadir Overpasses (SNOs) Predictions

Prediction of SNOs between NOAA-15 and METOP-C Satellite Orbit:

Table of predicted SNOs for the next 14.0 days since TLE Epoch: 2/8/2023
Index Date (NOAA-15) Time (NOAA-15) Lat,Lon (NOAA-15) SZA (NOAA-15 ) Date (METOP-C) Time (METOP-C) Lat,Lon (METOP-C) SZA (METOP-C ) Distance(km) Time Diff (sec)
1 02/21/2023 16:54:09 81.07, -34.85 93.11 02/21/2023 16:52:57 81.08, -34.68 93.11 3.32 72
2 02/21/2023 17:44:42 -81.08, 132.26 86.92 02/21/2023 17:43:40 -81.07, 132.32 86.95 1.70 62
3 02/21/2023 18:35:11 81.08, -60.35 93.07 02/21/2023 18:34:19 81.07, -60.17 93.07 3.13 52
4 02/21/2023 19:25:43 -81.07, 107.12 86.94 02/21/2023 19:25:01 -81.07, 107.20 86.95 1.36 42
5 02/21/2023 20:16:12 81.07, -85.48 93.05 02/21/2023 20:15:41 81.07, -85.67 93.02 3.25 31
6 02/21/2023 21:06:45 -81.08, 81.62 86.98 02/21/2023 21:06:23 -81.07, 81.71 86.99 2.21 22
7 02/21/2023 21:57:13 81.07,-110.61 93.04 02/21/2023 21:57:02 81.08,-110.79 93.02 3.25 11
8 02/21/2023 22:47:46 -81.08, 56.49 87.00 02/21/2023 22:47:44 -81.08, 56.59 86.99 1.74 2
9 02/21/2023 23:38:15 81.08,-136.11 93.00 02/21/2023 23:38:24 81.07,-136.28 92.98 3.09 9
10 02/22/2023 00:28:47 -81.07, 31.35 87.02 02/22/2023 00:29:05 -81.09, 31.47 86.99 2.44 18
11 02/22/2023 01:19:16 81.07,-161.24 92.98 02/22/2023 01:19:45 81.08,-161.40 92.98 2.95 29
12 02/22/2023 02:09:49 -81.08, 5.85 87.05 02/22/2023 02:10:27 -81.08, 5.97 87.03 2.19 38
13 02/22/2023 03:00:18 81.08, 173.26 92.94 02/22/2023 03:01:07 81.07, 173.10 92.94 2.98 49
14 02/22/2023 03:50:50 -81.08, -19.28 87.07 02/22/2023 03:51:48 -81.09, -19.15 87.03 2.62 58



Historial Predications of SNOs between NOAA-15 and METOP-C
